Home > Weather > Santa Barbara > Past weeks

Flag for USA Past Weather in Santa Barbara, California, USA — Yesterday and Last 2 Weeks

Now
64 °F

Clear.


Feels Like: 64 °F
Forecast: 58 / 70 °F
Wind: No wind

Location: Santa Barbara Municipal Airport

Current Time: Aug 26, 2016 at 9:58:24 PM

Latest Report: Aug 26, 2016 at 8:53 PM


Visibility: 10 mi

Pressure: 29.93 "Hg

Humidity: 84%

Dew Point: 59 °F

Location of Santa BarbaraLocation

Past Weather in Santa Barbara — Graph

°F

Santa Barbara Temperature Yesterday

Maximum temperature yesterday: 70 °F (at 2:53 PM)
Minimum temperature yesterday: 60 °F (at 6:53 AM)
Average temperature yesterday: 65 °F

High & Low Weather Summary for the Past Weeks

 TemperatureHumidityPressure
High76 °F (Aug 15, 2:53 PM)100% (Aug 14, 4:53 AM)30.06 "Hg (Aug 14, 4:53 AM)
Low56 °F (Aug 24, 6:53 AM)56% (Aug 23, 3:53 PM)29.80 "Hg (Aug 16, 6:53 PM)
Average65 °F85%29.91 "Hg
* Reported Aug 11 7:53 PM — Aug 26 7:53 PM, Santa Barbara, Weather by CustomWeather, © 2016

Note: Actual official high and low records may vary slightly from our data, if they occured in-between our weather recording intervals... More about our weather records

Advertising

Santa Barbara Weather History for the Previous 24 Hours

Scroll right to see more
 ConditionsComfort  
Time TempWeatherWind HumidityBarometerVisibility
7:53 PM
Fri, Aug 26
64 °FSunny.5 mph81%29.93 "Hg10 mi
6:53 PM66 °FSunny.N/A75%29.93 "Hg6 mi
5:53 PM68 °FSunny.13 mph73%29.93 "Hg7 mi
4:53 PM69 °FSunny.10 mph73%29.93 "Hg6 mi
3:53 PM70 °FSunny.9 mph71%29.93 "Hg10 mi
2:53 PM71 °FHaze.9 mph68%29.95 "Hg6 mi
1:53 PM71 °FHaze.9 mph68%29.97 "Hg6 mi
12:53 PM69 °FOvercast.7 mph70%29.98 "Hg9 mi
11:53 AM69 °FOvercast.5 mph73%29.98 "Hg9 mi
10:53 AM67 °FOvercast.No wind81%29.98 "Hg8 mi
9:53 AM66 °FOvercast.5 mph81%29.97 "Hg8 mi
8:53 AM65 °FMostly cloudy.No wind85%29.96 "Hg7 mi
7:53 AM64 °FOvercast.5 mph87%29.95 "Hg7 mi
7:00 AM63 °FOvercast.5 mph90%29.94 "Hg8 mi
6:53 AM63 °FOvercast.5 mph90%29.94 "Hg7 mi
5:53 AM62 °FOvercast.No wind90%29.93 "Hg10 mi
4:53 AM62 °FOvercast.6 mph90%29.92 "Hg10 mi
3:53 AM62 °FOvercast.7 mph90%29.92 "Hg9 mi
2:53 AM62 °FLow clouds.7 mph93%29.90 "Hg9 mi
1:53 AM62 °FLow clouds.9 mph93%29.90 "Hg9 mi
12:53 AM62 °FLow clouds.6 mph93%29.90 "Hg8 mi
11:53 PM
Thu, Aug 25
62 °FPassing clouds.7 mph93%29.90 "Hg8 mi
10:53 PM63 °FClear.5 mph93%29.90 "Hg8 mi
9:53 PM63 °FClear.3 mph90%29.90 "Hg9 mi
Weather by CustomWeather, © 2016

See weather overviewHow to use our weather pages